SCP
0 0 0 0 0 0 0 0 0 0 0 0 0 0 0 0 0 0 0 0 0 0 0 0 0 -0 -0 -0 -0 -0 0 0 0 0 0 0 0 -0 -0 -0 -0 0 0
0 0 0 0 0 0 0 0 0 0 0 0 0 0 0 0 0 0 0 0 0 0 0 0 0 0 0 0 0 0 0 -0 0 0 0 -0 0 0 -0 -0 0 0 0
0 0 0 0 0 0 0 0 0 0 0 0 0 0 0 0 0 0 0 0 0 0 0 0 0 0 0 0 0 0 0 0 0 0 0 -0 -0 -0 -0 -0 -0 -0 0
0 0 0 0 0 0 0 0 0 0 0 0 0 0 0 0 0 0 0 0 0 0 0 0 0 0 0 0 0 0 0 0 0 0 0 0 -0 -0 -0 -0 -0 -0 -0
0 0 0 0 0 0 0 0 0 0 0 0 0 0 0 0 0 0 0 0 0 0 0 0 0 0 0 0 0 0 0 0 0 0 0 0 0 0 -0 -0 -0 -0 -0
0 0 0 0 0 0 0 0 0 0 0 0 0 0 0 0 0 0 0 0 0 0 0 0 0 0 0 0 0 0 0 0 0 0 0 0 0 0 0 0 0 0 -0
0 0 0 0 0 0 0 0 0 0 0 0 0 0 0 0 0 0 0 0 0 0 0 0 0 0 0 0 0 0 0 0 0 0 0 0 0 0 0 0 0 0 0
0 0 0 0 0 0 0 0 0 0 0 0 0 0 0 0 0 0 0 0 0 0 0 0 0 0 0 0 0 0 0 0 0 0 0 0 0 0 0 0 0 0 0
0 0 0 0 0 0 0 0 0 0 0 0 0 0 0 0 0 0 0 0 0 0 0 0 0 0 0 0 0 0 0 0 0 0 0 0 0 0 0 0 0 0 0
0 0 0 0 0 0 0 0 0 0 0 0 0 0 0 0 0 0 0 0 0 0 0 0 0 0 0 0 0 0 0 0 0 0 0 0 0 0 0 0 0 0 0
0 0 0 0 0 0 0 0 0 0 0 0 0 0 0 0 0 0 0 0 0 0 0 0 0 0 0 0 0 0 0 0 0 0 0 0 0 0 0 0 0 0 0
0 0 0 0 0 0 0 0 0 0 0 0 0 0 0 0 0 0 0 0 0 0 0 0 0 0 0 0 0 0 -0 -0 0 0 0 0 0 0 0 0 0 0 0
0 0 0 0 0 0 0 0 0 0 0 0 0 0 0 0 0 -0 -0 -0 0 0 0 0 -0 -0 0 0 0 0 -0 0 0 0 0 0 0 0 0 0 0 0 0
0 0 0 0 0 0 0 0 0 0 0 0 0 0 0 0 0 0 0 0 0 0 0 0 0 0 -0 0 0 0 0 0 0 0 0 0 0 0 0 0 0 0 0
0 0 0 0 0 0 0 0 0 0 0 0 0 0 0 0 0 -0 -0 -0 -0 0 0 0 0 0 0 0 0 0 0 0 0 0 0 0 0 0 0 0 0 0 0
0 0 0 0 0 0 0 0 0 0 0 0 0 0 0 0 -0 -0 -0 0 0 0 0 0 0 0 0 0 0 0 0 0 0 0 0 0 0 0 0 0 0 0 0
0 0 0 0 0 0 0 0 0 0 0 0 0 0 0 0 -0 -0 0 0 0 0 0 0 0 0 0 0 0 0 0 0 0 0 0 0 0 0 0 0 0 0 0
0 0 0 0 0 0 0 0 0 0 0 0 0 0 0 0 0 0 0 0 0 0 0 0 0 0 0 0 0 0 0 0 0 0 0 0 0 0 0 0 0 0 0
0 0 0 0 0 0 0 0 0 0 0 0 0 0 0 0 0 0 0 0 0 0 0 0 0 0 0 0 0 0 0 0 0 0 0 0 0 0 0 0 0 0 0
0 0 0 0 0 0 0 0 0 0 0 0 0 0 0 0 0 0 0 0 0 0 0 0 0 0 0 0 0 0 0 0 0 0 0 0 0 0 0 0 0 0 0
0 0 0 0 0 0 0 0 0 0 0 0 0 0 0 0 0 0 0 0 0 0 0 0 0 0 0 0 0 0 0 0 0 0 0 0 0 0 0 0 0 0 0
0 0 0 0 0 0 0 0 0 0 0 0 0 0 0 0 0 0 0 0 0 0 0 0 0 0 0 0 0 0 0 0 0 0 0 0 0 -0 0 0 0 0 0
0 0 0 0 0 0 0 0 0 0 0 0 0 0 0 0 0 0 0 0 0 0 0 0 0 0 0 0 0 0 0 0 0 0 0 0 0 -0 0 0 0 0 0
0 0 0 0 0 0 0 0 0 0 0 0 0 0 0 0 0 0 0 0 0 0 0 0 0 0 0 0 0 0 0 0 0 -0 -0 -0 0 0 0 0 0 0 0
0 0 0 0 0 0 0 0 0 0 0 0 0 0 0 0 0 0 0 0 0 0 0 0 0 0 0 0 0 0 0 0 -0 -0 -0 -0 -0 -0 0 0 0 0 0
0 0 0 0 0 0 0 0 0 0 0 0 0 0 0 0 0 0 0 0 0 0 0 0 0 0 0 0 0 0 0 0 0 0 -0 -0 -0 -0 0 0 0 0 0
Wind_Speed_500mb
9 3 6 11 16 20 24 26 28 33 37 41 45 48 52 56 61 67 71 76 79 82 82 84 87 88 92 94 94 90 86 82 91 106 97 104 107 107 102 97 95 90 86
7 2 6 15 20 24 27 31 35 38 42 47 52 57 62 67 71 75 80 84 87 90 89 87 87 84 84 87 93 95 93 77 77 100 100 82 98 103 104 103 100 101 99
11 12 17 21 25 28 31 35 41 46 49 53 59 64 69 74 79 81 84 86 86 88 88 89 91 92 96 94 91 93 95 88 74 79 97 79 73 76 100 100 100 101 104
18 20 23 26 28 30 36 42 48 52 55 59 65 70 75 80 82 83 84 86 88 88 90 90 90 88 88 89 80 76 77 77 73 78 87 83 73 70 68 78 94 89 97
23 27 29 30 32 35 42 49 52 54 58 63 69 74 79 83 84 84 85 87 89 91 90 88 86 83 82 78 71 75 73 76 76 75 84 85 81 68 62 67 77 74 80
30 36 35 35 37 42 49 54 56 59 63 69 75 81 86 84 82 82 84 84 83 84 85 80 76 74 70 61 62 62 62 70 77 77 84 86 79 64 60 53 62 64 76
42 43 41 40 43 47 54 56 58 62 68 74 81 85 84 81 81 83 82 80 80 78 74 71 72 65 67 66 64 60 60 60 62 69 85 90 95 77 71 77 69 69 78
51 47 45 46 46 51 55 58 60 66 74 81 81 78 80 80 81 81 78 73 73 70 64 62 63 64 59 57 61 66 67 63 59 62 67 76 81 78 75 81 89 100 103
52 49 47 45 47 53 57 57 63 72 80 79 78 78 79 78 75 75 72 69 67 66 61 61 60 66 60 55 60 70 75 75 70 65 68 72 76 76 75 77 84 73 85
49 48 46 46 50 54 56 60 68 75 77 75 75 75 74 77 70 67 63 58 61 67 67 69 69 62 56 58 64 72 81 82 82 82 80 83 87 89 78 73 81 85 90
48 45 45 48 50 52 56 64 71 72 74 74 75 73 71 68 67 61 52 49 61 70 73 73 76 69 63 61 62 71 82 82 88 93 98 99 95 94 86 81 81 78 87
45 44 45 47 47 50 59 63 64 65 69 70 71 70 66 63 60 60 48 49 54 63 73 77 79 71 70 74 75 76 76 79 86 89 96 102 94 90 89 84 85 84 87
44 43 44 43 45 52 59 61 63 62 65 68 67 66 65 62 64 60 52 59 59 62 69 72 72 70 66 67 71 75 71 77 82 81 85 88 85 88 89 90 90 87 89
43 43 43 42 47 52 57 58 59 59 62 62 60 61 62 61 60 56 68 71 71 74 71 68 74 81 77 63 59 59 57 57 60 67 73 77 77 78 80 74 74 76 83
43 42 41 44 48 54 55 50 53 53 57 55 52 50 54 58 54 54 58 62 63 65 66 64 60 58 58 56 55 55 55 56 59 61 66 70 73 71 73 71 73 73 77
43 42 42 44 49 53 53 49 40 49 46 45 38 35 44 43 45 50 52 52 56 51 54 54 54 55 56 57 59 60 57 59 60 63 67 70 72 69 69 67 66 70 77
43 43 43 46 47 47 48 49 51 37 43 39 37 37 42 39 43 43 47 47 48 46 49 53 57 59 60 61 62 62 64 62 63 64 64 67 63 62 60 64 66 72 80
46 45 46 45 43 41 42 44 47 48 46 39 37 38 37 40 37 38 43 46 47 47 51 55 59 61 62 63 65 64 65 68 66 63 61 61 57 58 63 69 71 71 72
47 46 46 43 39 38 39 41 43 43 41 41 37 35 32 35 31 35 39 41 46 49 52 53 56 60 62 63 65 67 67 69 67 64 61 60 57 57 61 62 64 64 61
46 46 45 42 36 36 37 41 40 39 38 38 35 38 40 42 40 41 42 44 45 47 49 51 53 58 61 64 65 68 70 71 72 68 64 59 54 54 57 58 58 59 56
46 45 44 39 35 37 38 39 39 38 37 37 34 33 35 41 44 45 46 44 44 45 46 48 50 54 58 63 64 67 71 78 76 69 64 59 54 53 49 47 47 46 46
44 42 41 38 37 39 39 39 38 38 37 38 37 32 35 37 40 42 43 42 41 40 41 45 45 48 55 60 62 65 70 77 77 66 61 57 53 50 47 44 41 37 33
44 42 40 40 42 42 42 42 40 40 40 39 41 42 39 41 40 41 42 41 40 37 37 40 42 43 46 53 54 55 64 76 72 61 57 54 50 46 42 39 36 31 26
42 41 41 42 43 44 44 43 43 42 43 44 43 44 43 44 42 39 39 38 36 34 34 37 39 39 41 48 51 48 54 63 62 58 52 49 46 43 40 36 33 29 25
42 41 42 42 43 44 45 44 43 42 42 43 42 42 40 41 39 36 35 34 33 32 31 33 35 37 36 38 44 44 46 54 54 53 51 48 45 43 40 37 33 29 26
40 40 40 40 41 42 43 42 41 40 39 38 38 37 37 38 36 35 34 33 33 31 29 31 32 32 33 31 36 39 40 43 46 46 46 47 48 48 45 42 37 33 29
Wind_Direction_500mb
157 126 22 5 349 335 324 319 320 320 319 319 320 320 319 317 317 316 316 314 312 309 308 307 305 305 304 303 303 301 295 290 286 288 287 288 288 288 288 288 287 285 283
198 248 320 323 318 314 315 318 318 317 318 318 318 319 319 318 317 316 314 313 311 309 308 306 303 299 295 294 295 296 296 292 287 289 292 290 288 287 287 286 283 283 283
240 275 288 301 316 319 319 319 319 319 318 317 317 318 317 317 316 315 312 311 309 308 306 304 302 300 298 296 292 289 290 292 288 285 289 290 289 291 290 288 287 283 281
253 274 286 295 308 315 319 319 318 316 315 315 316 316 316 316 315 314 313 312 309 306 304 301 299 297 295 293 289 284 286 287 287 286 287 288 287 288 286 291 292 292 288
262 272 278 286 297 306 312 312 312 311 311 313 315 315 316 317 317 316 314 311 309 306 303 301 299 297 296 290 285 282 279 281 282 284 286 288 285 286 284 288 286 290 290
267 270 271 278 287 297 307 311 312 312 314 315 316 317 316 317 317 315 314 311 307 303 303 302 300 301 299 293 288 283 279 277 277 279 279 278 283 289 289 275 277 287 287
265 262 263 273 283 293 305 309 310 312 314 316 316 317 317 318 317 316 314 309 305 303 301 301 301 299 299 299 296 290 284 278 274 276 275 274 277 278 282 282 281 279 275
258 255 261 269 279 296 305 308 310 313 315 316 316 316 317 319 319 316 313 309 305 303 303 302 300 306 309 300 301 299 297 294 288 285 284 288 287 290 289 286 284 283 283
253 255 262 273 289 300 305 308 312 314 315 316 317 318 318 320 319 316 314 310 306 307 308 314 318 315 309 297 297 298 299 296 293 284 280 279 280 279 278 282 277 280 279
255 261 270 283 293 300 304 309 313 314 314 315 316 318 320 320 320 316 312 310 311 314 321 320 319 314 302 298 295 294 293 293 296 298 295 295 296 292 285 275 274 270 272
258 264 275 286 295 300 304 308 312 314 314 316 316 318 321 321 321 322 319 314 314 316 313 308 310 307 300 297 294 291 289 295 293 289 287 286 282 281 278 274 275 266 266
261 268 278 287 292 297 304 310 312 314 314 316 316 319 324 325 330 332 322 314 311 309 309 311 312 307 303 299 295 294 293 292 288 287 285 285 281 277 275 272 270 267 266
266 274 282 286 292 300 308 312 314 316 316 317 320 323 326 333 336 336 333 334 320 315 313 311 306 303 298 293 292 294 291 285 286 286 284 282 282 282 280 275 271 269 269
268 277 281 285 294 304 309 312 314 317 316 317 321 328 330 330 332 338 341 331 327 326 326 310 299 298 299 301 300 300 302 305 304 299 299 299 296 288 281 278 276 274 274
270 275 276 285 297 305 307 313 317 317 316 320 324 322 320 322 332 329 323 326 325 317 314 318 321 320 319 319 319 319 320 320 320 320 316 311 305 295 288 285 279 276 272
270 270 277 289 298 303 308 312 316 312 315 317 319 312 312 315 321 322 325 326 322 333 332 336 340 341 340 337 334 331 331 332 331 327 325 315 308 302 292 287 281 273 271
264 266 276 287 296 303 307 312 315 312 310 311 315 318 320 319 324 328 326 330 339 342 349 354 355 353 350 346 342 339 337 339 337 333 328 318 310 301 293 285 279 276 275
259 266 275 283 292 300 306 309 310 310 311 314 316 324 327 327 333 331 336 336 337 350 356 358 356 355 353 350 349 346 343 342 339 334 331 328 323 313 303 295 293 286 283
259 266 272 279 289 297 301 303 301 302 306 312 314 316 322 323 334 340 336 338 342 347 350 355 356 356 354 352 352 351 349 344 340 337 335 332 329 325 316 308 304 301 301
260 267 273 278 285 290 293 293 293 297 302 307 313 314 322 323 338 339 341 343 344 344 346 348 352 354 354 354 354 353 352 350 345 341 338 335 334 329 323 319 314 309 305
264 267 270 275 280 282 283 284 287 291 296 300 307 311 316 319 325 329 331 336 338 340 342 343 347 351 353 355 355 353 358 351 346 343 341 340 338 335 332 327 321 314 305
266 269 272 276 276 277 278 279 281 286 291 295 300 303 306 309 312 317 321 326 330 335 339 340 342 348 352 354 355 356 360 352 347 345 344 345 345 343 342 342 340 336 330
269 270 271 274 274 272 272 273 277 280 285 289 294 299 302 304 308 312 315 319 323 329 334 337 340 344 350 354 356 359 2 355 350 351 349 351 353 353 353 355 356 358 358
271 272 270 270 270 271 272 272 274 277 281 285 289 293 299 302 305 309 313 316 319 325 331 335 339 341 345 351 355 358 4 357 357 1 0 1 2 4 7 9 12 14 14
278 276 273 273 271 273 274 274 275 277 280 283 287 290 295 297 300 304 310 313 318 322 330 335 339 342 344 347 354 358 8 359 1 7 12 16 17 18 20 21 22 26 30
279 279 277 275 275 276 277 277 277 279 281 283 286 289 294 296 300 302 306 309 313 316 322 331 336 338 343 344 353 359 7 6 3 9 13 18 23 27 30 33 34 37 40
Wind_Speed_850mb
9 3 6 11 16 20 24 26 28 33 37 41 45 48 52 56 61 67 71 76 79 82 82 84 87 88 92 94 94 90 86 82 91 106 97 104 107 107 102 97 95 90 86
7 2 6 15 20 24 27 31 35 38 42 47 52 57 62 67 71 75 80 84 87 90 89 87 87 84 84 87 93 95 93 77 77 100 100 82 98 103 104 103 100 101 99
11 12 17 21 25 28 31 35 41 46 49 53 59 64 69 74 79 81 84 86 86 88 88 89 91 92 96 94 91 93 95 88 74 79 97 79 73 76 100 100 100 101 104
18 20 23 26 28 30 36 42 48 52 55 59 65 70 75 80 82 83 84 86 88 88 90 90 90 88 88 89 80 76 77 77 73 78 87 83 73 70 68 78 94 89 97
23 27 29 30 32 35 42 49 52 54 58 63 69 74 79 83 84 84 85 87 89 91 90 88 86 83 82 78 71 75 73 76 76 75 84 85 81 68 62 67 77 74 80
30 36 35 35 37 42 49 54 56 59 63 69 75 81 86 84 82 82 84 84 83 84 85 80 76 74 70 61 62 62 62 70 77 77 84 86 79 64 60 53 62 64 76
42 43 41 40 43 47 54 56 58 62 68 74 81 85 84 81 81 83 82 80 80 78 74 71 72 65 67 66 64 60 60 60 62 69 85 90 95 77 71 77 69 69 78
51 47 45 46 46 51 55 58 60 66 74 81 81 78 80 80 81 81 78 73 73 70 64 62 63 64 59 57 61 66 67 63 59 62 67 76 81 78 75 81 89 100 103
52 49 47 45 47 53 57 57 63 72 80 79 78 78 79 78 75 75 72 69 67 66 61 61 60 66 60 55 60 70 75 75 70 65 68 72 76 76 75 77 84 73 85
49 48 46 46 50 54 56 60 68 75 77 75 75 75 74 77 70 67 63 58 61 67 67 69 69 62 56 58 64 72 81 82 82 82 80 83 87 89 78 73 81 85 90
48 45 45 48 50 52 56 64 71 72 74 74 75 73 71 68 67 61 52 49 61 70 73 73 76 69 63 61 62 71 82 82 88 93 98 99 95 94 86 81 81 78 87
45 44 45 47 47 50 59 63 64 65 69 70 71 70 66 63 60 60 48 49 54 63 73 77 79 71 70 74 75 76 76 79 86 89 96 102 94 90 89 84 85 84 87
44 43 44 43 45 52 59 61 63 62 65 68 67 66 65 62 64 60 52 59 59 62 69 72 72 70 66 67 71 75 71 77 82 81 85 88 85 88 89 90 90 87 89
43 43 43 42 47 52 57 58 59 59 62 62 60 61 62 61 60 56 68 71 71 74 71 68 74 81 77 63 59 59 57 57 60 67 73 77 77 78 80 74 74 76 83
43 42 41 44 48 54 55 50 53 53 57 55 52 50 54 58 54 54 58 62 63 65 66 64 60 58 58 56 55 55 55 56 59 61 66 70 73 71 73 71 73 73 77
43 42 42 44 49 53 53 49 40 49 46 45 38 35 44 43 45 50 52 52 56 51 54 54 54 55 56 57 59 60 57 59 60 63 67 70 72 69 69 67 66 70 77
43 43 43 46 47 47 48 49 51 37 43 39 37 37 42 39 43 43 47 47 48 46 49 53 57 59 60 61 62 62 64 62 63 64 64 67 63 62 60 64 66 72 80
46 45 46 45 43 41 42 44 47 48 46 39 37 38 37 40 37 38 43 46 47 47 51 55 59 61 62 63 65 64 65 68 66 63 61 61 57 58 63 69 71 71 72
47 46 46 43 39 38 39 41 43 43 41 41 37 35 32 35 31 35 39 41 46 49 52 53 56 60 62 63 65 67 67 69 67 64 61 60 57 57 61 62 64 64 61
46 46 45 42 36 36 37 41 40 39 38 38 35 38 40 42 40 41 42 44 45 47 49 51 53 58 61 64 65 68 70 71 72 68 64 59 54 54 57 58 58 59 56
46 45 44 39 35 37 38 39 39 38 37 37 34 33 35 41 44 45 46 44 44 45 46 48 50 54 58 63 64 67 71 78 76 69 64 59 54 53 49 47 47 46 46
44 42 41 38 37 39 39 39 38 38 37 38 37 32 35 37 40 42 43 42 41 40 41 45 45 48 55 60 62 65 70 77 77 66 61 57 53 50 47 44 41 37 33
44 42 40 40 42 42 42 42 40 40 40 39 41 42 39 41 40 41 42 41 40 37 37 40 42 43 46 53 54 55 64 76 72 61 57 54 50 46 42 39 36 31 26
42 41 41 42 43 44 44 43 43 42 43 44 43 44 43 44 42 39 39 38 36 34 34 37 39 39 41 48 51 48 54 63 62 58 52 49 46 43 40 36 33 29 25
42 41 42 42 43 44 45 44 43 42 42 43 42 42 40 41 39 36 35 34 33 32 31 33 35 37 36 38 44 44 46 54 54 53 51 48 45 43 40 37 33 29 26
40 40 40 40 41 42 43 42 41 40 39 38 38 37 37 38 36 35 34 33 33 31 29 31 32 32 33 31 36 39 40 43 46 46 46 47 48 48 45 42 37 33 29
Wind_Direction_850mb
157 126 22 5 349 335 324 319 320 320 319 319 320 320 319 317 317 316 316 314 312 309 308 307 305 305 304 303 303 301 295 290 286 288 287 288 288 288 288 288 287 285 283
198 248 320 323 318 314 315 318 318 317 318 318 318 319 319 318 317 316 314 313 311 309 308 306 303 299 295 294 295 296 296 292 287 289 292 290 288 287 287 286 283 283 283
240 275 288 301 316 319 319 319 319 319 318 317 317 318 317 317 316 315 312 311 309 308 306 304 302 300 298 296 292 289 290 292 288 285 289 290 289 291 290 288 287 283 281
253 274 286 295 308 315 319 319 318 316 315 315 316 316 316 316 315 314 313 312 309 306 304 301 299 297 295 293 289 284 286 287 287 286 287 288 287 288 286 291 292 292 288
262 272 278 286 297 306 312 312 312 311 311 313 315 315 316 317 317 316 314 311 309 306 303 301 299 297 296 290 285 282 279 281 282 284 286 288 285 286 284 288 286 290 290
267 270 271 278 287 297 307 311 312 312 314 315 316 317 316 317 317 315 314 311 307 303 303 302 300 301 299 293 288 283 279 277 277 279 279 278 283 289 289 275 277 287 287
265 262 263 273 283 293 305 309 310 312 314 316 316 317 317 318 317 316 314 309 305 303 301 301 301 299 299 299 296 290 284 278 274 276 275 274 277 278 282 282 281 279 275
258 255 261 269 279 296 305 308 310 313 315 316 316 316 317 319 319 316 313 309 305 303 303 302 300 306 309 300 301 299 297 294 288 285 284 288 287 290 289 286 284 283 283
253 255 262 273 289 300 305 308 312 314 315 316 317 318 318 320 319 316 314 310 306 307 308 314 318 315 309 297 297 298 299 296 293 284 280 279 280 279 278 282 277 280 279
255 261 270 283 293 300 304 309 313 314 314 315 316 318 320 320 320 316 312 310 311 314 321 320 319 314 302 298 295 294 293 293 296 298 295 295 296 292 285 275 274 270 272
258 264 275 286 295 300 304 308 312 314 314 316 316 318 321 321 321 322 319 314 314 316 313 308 310 307 300 297 294 291 289 295 293 289 287 286 282 281 278 274 275 266 266
261 268 278 287 292 297 304 310 312 314 314 316 316 319 324 325 330 332 322 314 311 309 309 311 312 307 303 299 295 294 293 292 288 287 285 285 281 277 275 272 270 267 266
266 274 282 286 292 300 308 312 314 316 316 317 320 323 326 333 336 336 333 334 320 315 313 311 306 303 298 293 292 294 291 285 286 286 284 282 282 282 280 275 271 269 269
268 277 281 285 294 304 309 312 314 317 316 317 321 328 330 330 332 338 341 331 327 326 326 310 299 298 299 301 300 300 302 305 304 299 299 299 296 288 281 278 276 274 274
270 275 276 285 297 305 307 313 317 317 316 320 324 322 320 322 332 329 323 326 325 317 314 318 321 320 319 319 319 319 320 320 320 320 316 311 305 295 288 285 279 276 272
270 270 277 289 298 303 308 312 316 312 315 317 319 312 312 315 321 322 325 326 322 333 332 336 340 341 340 337 334 331 331 332 331 327 325 315 308 302 292 287 281 273 271
264 266 276 287 296 303 307 312 315 312 310 311 315 318 320 319 324 328 326 330 339 342 349 354 355 353 350 346 342 339 337 339 337 333 328 318 310 301 293 285 279 276 275
259 266 275 283 292 300 306 309 310 310 311 314 316 324 327 327 333 331 336 336 337 350 356 358 356 355 353 350 349 346 343 342 339 334 331 328 323 313 303 295 293 286 283
259 266 272 279 289 297 301 303 301 302 306 312 314 316 322 323 334 340 336 338 342 347 350 355 356 356 354 352 352 351 349 344 340 337 335 332 329 325 316 308 304 301 301
260 267 273 278 285 290 293 293 293 297 302 307 313 314 322 323 338 339 341 343 344 344 346 348 352 354 354 354 354 353 352 350 345 341 338 335 334 329 323 319 314 309 305
264 267 270 275 280 282 283 284 287 291 296 300 307 311 316 319 325 329 331 336 338 340 342 343 347 351 353 355 355 353 358 351 346 343 341 340 338 335 332 327 321 314 305
266 269 272 276 276 277 278 279 281 286 291 295 300 303 306 309 312 317 321 326 330 335 339 340 342 348 352 354 355 356 360 352 347 345 344 345 345 343 342 342 340 336 330
269 270 271 274 274 272 272 273 277 280 285 289 294 299 302 304 308 312 315 319 323 329 334 337 340 344 350 354 356 359 2 355 350 351 349 351 353 353 353 355 356 358 358
271 272 270 270 270 271 272 272 274 277 281 285 289 293 299 302 305 309 313 316 319 325 331 335 339 341 345 351 355 358 4 357 357 1 0 1 2 4 7 9 12 14 14
278 276 273 273 271 273 274 274 275 277 280 283 287 290 295 297 300 304 310 313 318 322 330 335 339 342 344 347 354 358 8 359 1 7 12 16 17 18 20 21 22 26 30
279 279 277 275 275 276 277 277 277 279 281 283 286 289 294 296 300 302 306 309 313 316 322 331 336 338 343 344 353 359 7 6 3 9 13 18 23 27 30 33 34 37 40